Hourly Data Report for April 26, 2005

TORONTO CITY
ONTARIO

43°40'00.000" N
79°24'00.000" W
112.50 m
6158355
71508
XTO

Download Data

Hourly Data (April 2005)
Hourly Data Report for April 26, 2005
TIME
LST
Temp Definition
°C
Dew Point Definition
°C
Rel Hum Definition
%
Precip. Amount Definition
mm

Wind Dir Definition
10's deg

Wind Spd Definition
km/h
Visibility Definition
km
Stn Press Definition
kPa
Hmdx Definition


Wind Chill Definition


Weather Definition


00:00 6.0 3.6 85   LegendMM LegendMM   98.91     LegendNANA
01:00 5.8 2.6 80   LegendMM LegendMM   98.93     LegendNANA
02:00 5.6 3.1 84   LegendMM LegendMM   98.91     LegendNANA
03:00 5.5 3.3 86   LegendMM LegendMM   98.92     LegendNANA
04:00 5.9 3.8 86   LegendMM LegendMM   98.91     LegendNANA
05:00 6.2 4.0 86   LegendMM LegendMM   98.92     LegendNANA
06:00 7.1 4.3 82   LegendMM LegendMM   98.96     LegendNANA
07:00 8.4 4.6 77   LegendMM LegendMM   99.01     LegendNANA
08:00 9.5 3.5 66   LegendMM LegendMM   99.06     LegendNANA
09:00 9.2 4.1 70   LegendMM LegendMM   99.08     LegendNANA
10:00 9.9 5.3 73   LegendMM LegendMM   99.07     LegendNANA
11:00 11.5 5.6 67   LegendMM LegendMM   99.04     LegendNANA
12:00 13.1 5.3 59   LegendMM LegendMM   98.98     LegendNANA
13:00 13.0 4.8 57   LegendMM LegendMM   98.92     LegendNANA
14:00 14.3 5.6 56   LegendMM LegendMM   98.87     LegendNANA
15:00 14.8 5.2 53   LegendMM LegendMM   98.78     LegendNANA
16:00 15.1 5.3 52   LegendMM LegendMM   98.71     LegendNANA
17:00 14.9 5.9 55   LegendMM LegendMM   98.64     LegendNANA
18:00 14.0 4.3 52   LegendMM LegendMM   98.61     LegendNANA
19:00 13.9 4.9 55   LegendMM LegendMM   98.62     LegendNANA
20:00 14.1 5.2 55   LegendMM LegendMM   98.72     LegendNANA
21:00 11.7 8.2 79   LegendMM LegendMM   98.80     LegendNANA
22:00 11.1 9.1 87   LegendMM LegendMM   98.76     LegendNANA
23:00 11.1 9.3 89   LegendMM LegendMM   98.66     LegendNANA

Notes on Data Quality.

Legend

  • E = Estimated
  • M = Missing
  • NA = Not Available*
  • [empty] = Indicates an unobserved value
Date modified: